FW2422 Weather Reports


Display with metric or nautical units.
time (UTC)temp
F
wind
direction
speed
MPH
gust
MPH
rain 1hr
in
rain 24hr
in
rain mn
in
humidity
%
barometer
mb
20260505083026 71 207 4.0 13.0 0.00 0.00 0.00 84 1004.5
20260505081522 70 127 2.0 12.0 0.00 0.00 0.00 84 1004.6
20260505080024 71 194 2.0 12.0 0.00 0.00 0.00 83 1004.7
20260505074518 71 123 3.0 11.0 0.00 0.00 0.00 83 1005.0
20260505064559 72 189 1.0 13.0 0.00 0.00 0.00 80 1005.7
20260505054556 72 95 2.0 11.0 0.00 0.00 0.00 78 1005.9
20260505053034 72 205 4.0 11.0 0.00 0.00 0.00 77 1006.0
20260505051528 72 143 2.0 10.0 0.00 0.00 0.00 77 1006.2
20260505034512 74 137 2.0 9.0 0.00 0.00 0.00 72 1006.3
20260505033012 74 160 2.0 9.0 0.00 0.00 0.00 71 1006.3
20260505031529 74 101 1.0 7.0 0.00 0.00 0.00 71 1006.6
20260505030012 74 113 3.0 11.0 0.00 0.00 0.00 70 1006.5
20260505024541 74 66 1.0 9.0 0.00 0.00 0.00 70 1006.4
20260504223019 81 210 5.0 13.0 0.00 0.00 0.00 55 1006.8
20260504221518 81 118 3.0 14.0 0.00 0.00 0.00 56 1007.0
20260504220016 81 164 4.0 13.0 0.00 0.00 0.00 55 1007.3
20260504214514 81 226 4.0 12.0 0.00 0.00 0.00 54 1007.3
20260504213013 82 142 5.0 11.0 0.00 0.00 0.00 52 1007.6
20260504211512 82 268 3.0 13.0 0.00 0.00 0.00 53 1007.8
20260504210011 83 148 2.0 12.0 0.00 0.00 0.00 53 1008.0
20260504204509 82 217 2.0 18.0 0.00 0.00 0.00 54 1008.5
20260504203007 82 98 2.0 9.0 0.00 0.00 0.00 52 1008.9
20260504201502 81 224 4.0 13.0 0.00 0.00 0.00 52 1009.2
20260504200101 81 221 5.0 10.0 0.00 0.00 0.00 51 1009.6
20260504194558 81 117 3.0 15.0 0.00 0.00 0.00 51 1009.7
20260504193056 81 221 4.0 11.0 0.00 0.00 0.00 50 1009.9
20260504191605 81 143 3.0 16.0 0.00 0.00 0.00 50 1010.1
20260504190054 80 159 2.0 16.0 0.00 0.00 0.00 51 1010.3
20260504184548 79 135 2.0 13.0 0.00 0.00 0.00 50 1010.4
20260504183045 79 190 4.0 14.0 0.00 0.00 0.00 49 1010.6
20260504181545 80 177 4.0 11.0 0.00 0.00 0.00 48 1010.9
20260504180039 79 105 3.0 14.0 0.00 0.00 0.00 48 1010.9
20260504174535 78 150 3.0 12.0 0.00 0.00 0.00 48 1011.3